View from above orbital plane
|
View from above satellite
|
Ground track
|
The orbit data is extracted from the following two-line orbital elements,
1 00876U 64053A 21112.34603100 -.00000073 00000-0 11519-4 0 9995
2 00876 65.0585 116.0044 0155957 279.1437 79.2049 14.63792666 13086
Epoch (UTC): | 22 April 2021 08:18:17 |
Eccentricity: | 0.0155957 |
inclination: | 65.0585° |
perigee height: | 571 km |
apogee height: | 791 km |
right ascension of ascending node: | 116.0044° |
argument of perigee: | 279.1437° |
revolutions per day: | 14.63792666 |
mean anomaly at epoch: | 79.2049° |
orbit number at epoch: | 1308 |
The dashed part of the orbit path shows where the satellite is in the earth's shadow,
|
|